Campo, CA

6:44 PM PDT on August 19, 2019 (GMT -0700)
Campo

Weather History for KCZZ - June, 2019

Change the Weather History Date:

Friday, June 14, 2019

  Actual Average Record
Temperature  
Mean Temperature 62 °F 66 °F  
Max Temperature 80 °F 87 °F 104 °F (1961)
Min Temperature 43 °F 45 °F 29 °F (1977)
Degree Days  
Heating Degree Days 3 2  
Month to date heating degree days 20 37  
Since 1 June heating degree days 20 37  
Since 1 July heating degree days 3035 2964  
Cooling Degree Days 0 2  
Month to date cooling degree days 53 28  
Year to date cooling degree days 55 58  
Since 1 June cooling degree days 53 28  
Growing Degree Days 11 (Base 50)    
Moisture  
Dew Point 44 °F    
Average Humidity 59    
Maximum Humidity 93    
Minimum Humidity 25    
Precipitation  
Precipitation 0.00 in 0.00 in 0.00 in (2019)
Month to date precipitation 0.00 0.05  
Year to date precipitation 12.74 10.09  
Sea Level Pressure  
Sea Level Pressure 29.86 in    
Wind  
Wind Speed 10 mph (SW)    
Max Wind Speed 20 mph    
Max Gust Speed 26 mph    
T = Trace of Precipitation, MM = Missing Value Source: NWS Daily Summary

Daily Weather History Graph

Daily Weather History Graph

Search for Another Location

Airport or City:

Astronomy

Jun. 14, 2019 Rise Set
Actual Time 5:37 AM PDT 7:54 PM PDT
Civil Twilight 5:09 AM PDT 8:23 PM PDT
Nautical Twilight 4:34 AM PDT 8:58 PM PDT
Astronomical Twilight 3:56 AM PDT 9:36 PM PDT
Moon 5:29 PM PDT (6/14) 3:47 AM PDT (6/14)
Length of Visible Light 15h 13m
Length of Day
14h 16m
Waxing Gibbous, 93% of the Moon is Illuminated
Jun 14
Waxing Gibbous
Jun 17
Full
Jun 25
Last Quarter
Jul 2
New
Jul 9
First Quarter

Hourly Weather History & Observations

Time (PDT) Temp. Windchill Dew Point Humidity Pressure Visibility Wind Dir Wind Speed Gust Speed Precip Events Conditions
12:52 AM 48.9 °F - 46.0 °F 90% 29.86 in - ENE 5.8 mph - N/A   Unknown
1:52 AM 46.9 °F - 44.1 °F 90% 29.85 in - Calm Calm - N/A   Unknown
2:52 AM 43.0 °F 41.3 °F 39.9 °F 89% 29.84 in - NE 3.5 mph - N/A   Unknown
3:52 AM 45.0 °F 41.8 °F 41.0 °F 86% 29.84 in - NE 5.8 mph - N/A   Unknown
4:52 AM 46.9 °F - 43.0 °F 86% 29.84 in - NE 5.8 mph - N/A   Unknown
5:52 AM 45.0 °F 43.5 °F 42.1 °F 90% 29.86 in - NE 3.5 mph - N/A   Unknown
6:52 AM 51.1 °F - 46.0 °F 83% 29.87 in - ENE 5.8 mph - N/A   Unknown
7:52 AM 62.1 °F - 48.9 °F 62% 29.88 in - Calm Calm - N/A   Unknown
8:52 AM 68.0 °F - 43.0 °F 40% 29.88 in - WSW 9.2 mph - N/A   Unknown
9:52 AM 72.0 °F - 37.0 °F 28% 29.88 in - WSW 12.7 mph - N/A   Unknown
10:52 AM 73.9 °F - 35.1 °F 24% 29.88 in - WSW 13.8 mph - N/A   Unknown
11:52 AM 75.0 °F - 39.0 °F 27% 29.88 in - SW 15.0 mph - N/A   Unknown
12:52 PM 77.0 °F - 41.0 °F 28% 29.87 in - SW 17.3 mph - N/A   Unknown
1:52 PM 78.1 °F - 41.0 °F 27% 29.86 in - SW 18.4 mph 21.9 mph N/A   Unknown
2:52 PM 79.0 °F - 48.0 °F 34% 29.86 in - SW 15.0 mph 21.9 mph N/A   Unknown
3:52 PM 77.0 °F - 48.9 °F 37% 29.86 in - SW 19.6 mph 24.2 mph N/A   Unknown
4:52 PM 75.9 °F - 48.9 °F 38% 29.84 in - SW 15.0 mph - N/A   Unknown
5:52 PM 73.0 °F - 48.9 °F 42% 29.84 in - SW 16.1 mph - N/A   Unknown
6:52 PM 69.1 °F - 50.0 °F 51% 29.85 in - SW 12.7 mph - N/A   Unknown